Regional Weather Roundup
Issued by NWS Cleveland, OH

Home | Current Version | Previous Version | Graphics & Text | Print | Product List | Glossary On
Versions: 1 2 3 4 5 6 7 8 9 10 11 12 13 14 15 16 17 18 19 20 21 22 23 24 25 26 27 28 29 30 31 32 33 34 35 36 37 38 39 40 41 42 43 44 45 46 47 48 49 50
000
ASUS41 KCLE 300100
RWRCLE
OHIO REGIONAL WEATHER ROUNDUP
NATIONAL WEATHER SERVICE WILMINGTON, OH
900 PM EDT FRI MAY 29 2015

NOTE: "FAIR" INDICATES FEW OR NO CLOUDS BELOW 12,000 FEET WITH NO
SIGNIFICANT WEATHER AND/OR OBSTRUCTIONS TO VISIBILITY.

OHZ001>008-015>018-024>027-034-035-043-044-300200-
   NORTHWEST OHIO

CITY           SKY/WX    TMP DP  RH WIND       PRES   REMARKS
DEFIANCE       PTCLDY    78  64  61 S6        29.99S
FINDLAY        MOCLDY    78  64  61 S10       30.01S
TOLEDO EXPRESS MOCLDY    76  65  68 S5        29.99S
TOLEDO EXEC    LGT RAIN  78  67  68 SW8       30.01R
LIMA           MOCLDY    78  62  57 S8        30.03S
$$

OHZ009>014-019>023-028>033-038-089-300200-
   NORTHEAST OHIO

CITY           SKY/WX    TMP DP  RH WIND       PRES   REMARKS
CLE-HOPKINS    PTCLDY    80  63  55 S9        30.05S
CLE-LAKEFRONT  MOCLDY    81  63  54 S12       30.02S
CUY CO. ARPT   MOCLDY    82  66  57 S9        30.06S
LORAIN-ELYRIA  PTCLDY    79  65  62 S8        30.04S
ASHTABULA      PTCLDY    73  67  81 SE3       30.07F
AKRON-CANTON   PTCLDY    78  64  61 S9        30.09S
WOOSTER        NOT AVBL
MANSFIELD      CLEAR     77  65  66 S12       30.07S
YOUNGSTOWN     MOCLDY    78  63  59 S7        30.09S
$$

OHZ042-051>053-060>062-070>072-077>081-300200-
  SOUTHWEST OHIO

CITY           SKY/WX    TMP DP  RH WIND       PRES   REMARKS
CINC-COVINGTON MOCLDY    74  67  78 S8        30.07R
CINC-LUNKEN    PTCLDY    75  67  76 S6        30.06R
HAMILTON       MOCLDY    79  66  64 VRB3      30.06R
DAYTON         NOT AVBL
WRIGHT-PAT AFB NOT AVBL
DAYTON GENERAL PTCLDY    77  64  64 S8        30.06R
WILMINGTON     CLEAR     75  65  70 S8        30.07S
$$

OHZ036-037-039>041-045>050-054>059-063>069-073>076-082>088-300200-
  CENTRAL AND SOUTHEAST OHIO

CITY           SKY/WX    TMP DP  RH WIND       PRES   REMARKS
COLUMBUS       MOCLDY    77  64  64 S8        30.08R
OSU AIRPORT    MOCLDY    78  62  57 S10       30.07R
BOLTON FIELD   NOT AVBL
RICKENBACK AFB NOT AVBL
NEWARK         PTCLDY    77  66  68 S6        30.08S
MARION         PTCLDY    78  63  59 S9        30.06R
LANCASTER      MOCLDY    76  66  71 S6        30.10R
ZANESVILLE     MOCLDY    77  65  66 S8        30.10R
NEW PHILLY     PTCLDY    79  68  69 SE6       30.10S
$$


USA.gov is the U.S. government's official web portal to all federal, state and local government web resources and services.